This is the latest recevied weather packets stored in our database for station/object DL9GRB-13. If no packets are shown the sender has not sent any weather packets the latest 10 day(s).
| Time | Temp. | Humidity | Pressure | Rain* | Wind** | Luminosity | Snow |
|---|---|---|---|---|---|---|---|
| 1777818127 | 21.11° C | 59% | 1008.7 hPa | 0 mm | - | 521 W/m² | - |
| 1777817947 | 21.11° C | 60% | 1008.5 hPa | 0 mm | - | 557 W/m² | - |
| 1777817767 | 20.56° C | 60% | 1008.8 hPa | 0 mm | - | 535 W/m² | - |
| 1777817587 | 21.11° C | 58% | 1008.8 hPa | 0 mm | - | 377 W/m² | - |
| 1777817407 | 21.67° C | 57% | 1008.9 hPa | 0 mm | - | 408 W/m² | - |
| 1777817227 | 21.67° C | 58% | 1008.9 hPa | 0 mm | - | 245 W/m² | - |
| 1777817047 | 21.67° C | 59% | 1008.9 hPa | 0 mm | - | 640 W/m² | - |
| 1777816867 | 21.11° C | 61% | 1008.9 hPa | 0 mm | - | 660 W/m² | - |
| 1777816687 | 21.11° C | 60% | 1009 hPa | 0 mm | - | 611 W/m² | - |
| 1777816507 | 21.11° C | 60% | 1008.9 hPa | 0 mm | - | 571 W/m² | - |
| 1777816327 | 20.56° C | 61% | 1008.9 hPa | 0 mm | - | 556 W/m² | - |
| 1777816147 | 21.11° C | 61% | 1009 hPa | 0 mm | - | 223 W/m² | - |
| 1777815967 | 21.11° C | 59% | 1009 hPa | 0 mm | - | 224 W/m² | - |
| 1777815787 | 21.11° C | 60% | 1009 hPa | 0 mm | - | 384 W/m² | - |
| 1777815607 | 21.67° C | 59% | 1008.9 hPa | 0 mm | - | 595 W/m² | - |
| 1777815427 | 21.67° C | 59% | 1008.9 hPa | 0 mm | - | 626 W/m² | - |
| 1777815247 | 21.67° C | 60% | 1008.9 hPa | 0 mm | - | 644 W/m² | - |
| 1777815067 | 21.67° C | 59% | 1008.8 hPa | 0 mm | - | 506 W/m² | - |
| 1777814887 | 21.67° C | 59% | 1009.1 hPa | 0 mm | - | 659 W/m² | - |
| 1777814707 | 21.67° C | 59% | 1009.1 hPa | 0 mm | - | 642 W/m² | - |
| 1777814527 | 22.22° C | 58% | 1009 hPa | 0 mm | - | 639 W/m² | - |
| 1777814347 | 22.78° C | 57% | 1008.9 hPa | 0 mm | - | 682 W/m² | - |
| 1777814167 | 22.22° C | 58% | 1009 hPa | 0 mm | - | 638 W/m² | - |
| 1777813987 | 22.22° C | 58% | 1009.1 hPa | 0 mm | - | 635 W/m² | - |
| 1777813807 | 22.78° C | 58% | 1009 hPa | 0 mm | - | 576 W/m² | - |
* Rain latest hour (hover to see other rain measurements)
** Current wind speed in m/s (hover to see current wind gust speed)